AirNav   Bose ProFlight Aviation Headset
 
 1080 users online  

36S Happy Camp Airport
Happy Camp, California, USA

GOING TO HAPPY CAMP?


FAA INFORMATION EFFECTIVE 13 SEPTEMBER 2018

Location

FAA Identifier: 36S
Lat/Long: 41-47-26.4460N / 123-23-20.2000W
41-47.440767N / 123-23.336667W
41.7906794 / -123.3889444
(estimated)
Elevation: 1209 ft. / 368.5 m (surveyed)
Variation: 18E (1985)
Time zone: UTC -7 (UTC -8 during Standard Time)
Zip code: 96039

Airport Operations

Airport use: Open to the public
Activation date: 10/1951
Control tower: no
ARTCC: SEATTLE CENTER
FSS: RANCHO MURIETA FLIGHT SERVICE STATION
NOTAMs facility: RIU (NOTAM-D service available)
Attendance: UNATNDD
Wind indicator: yes
Segmented circle: yes

Airport Communications

CTAF: 122.9

Nearby radio navigation aids

VOR radial/distance  VOR name  Freq  Var
FJSr289/33.2FORT JONES VOR/DME109.6019E
CECr075/38.1CRESCENT CITY VORTAC109.0014E

Airport Services

Parking: tiedowns
Airframe service: NONE
Powerplant service: NONE
Bottled oxygen: NONE
Bulk oxygen: NONE

Runway Information

Runway 4/22

Dimensions: 3000 x 50 ft. / 914 x 15 m
Surface: asphalt, in fair condition
Weight bearing capacity: 
Single wheel: 30.0
RUNWAY 4  RUNWAY 22
Latitude: 41-47.298167N41-47.563167N
Longitude: 123-23.608667W123-23.051333W
Traffic pattern: rightleft
Markings: basic, in fair conditionbasic, in fair condition
Runway end identifier lights: nono
Obstructions: 25 ft. tree, 500 ft. from runway, 120 ft. left of centerline, 12:1 slope to clear
RWY 04 HAS 3 FT FENCE O FEET FROM RWY END AND 80 FEET L.
10 ft. brush, 200 ft. from runway, 125 ft. right of centerline
RY 22 HAS 8 FT SHRUB 0 FEET FM RY END AND 115 FT RIGHT.

Airport Ownership and Management from official FAA records

Ownership: Publicly-owned
Owner: U.S. FOREST SERVICE
63822 HIGHWAY 96
HAPPY CAMP, CA 96039-0377
Phone 530-493-1730
OPERD/MAINTD BYCOUNTY OF SISKIYOU COUNTY.
Manager: MELISSA CUMMINS
190 GREENHORN ROAD
YREKA, CA 96097
Phone (530) 842-8220
DIRECTOR OF AIRPORTS OFFICE IN YREKA.

Airport Operational Statistics

Aircraft operations: 150/year *
100% transient general aviation
* for 12-month period ending 31 December 2016

Additional Remarks

E94 US FOREST SERVICE.
RWY 22 HAS +35' TREES 600' FROM THLD 125' EITHER SIDE OF CNTRLN.
A93 US FOREST SVC MANS HELIPORT MAY THROUGH SEP.

Instrument Procedures

There are no published instrument procedures at 36S.

Some nearby airports with instrument procedures:

KCEC - Jack Mc Namara Field Airport (38 nm W)
KSIY - Siskiyou County Airport (41 nm E)
KMFR - Rogue Valley International - Medford Airport (42 nm NE)
3S8 - Grants Pass Airport (43 nm N)
O46 - Weed Airport (46 nm SE)
 
Loc | Ops | Rwys | IFR | FBO | Links
Com | Nav | Svcs | Stats | Notes


 
Area around 36S (Happy Camp Airport)
 
Road maps at: MapQuest Bing Google
 
Aerial photo
WARNING: Photo may not be current or correct
Aerial photo of 36S (Happy Camp Airport)
Do you have a better or more recent aerial photo of Happy Camp Airport that you would like to share? If so, please send us your photo.

 
Sectional chart

 
Airport distance calculator
Flying to Happy Camp Airport? Find the distance to fly.

From to 36S

Sunrise and sunset
Times for 25-Sep-2018
 Local
(UTC-7)
 Zulu
(UTC)
Morning civil twilight06:3713:37
Sunrise07:0514:05
Sunset19:0502:05
Evening civil twilight19:3302:33

Current date and time
Zulu (UTC)  26-Sep-2018 00:18:06
Local (UTC-7)  25-Sep-2018 17:18:06
 
METAR
3S4 
23nm NW 
SuperAWOS
260005Z AUTO 34006KT 10SM 32/07 A3000
KCEC 
37nm W 
252356Z AUTO 31004KT 10SM CLR 16/09 A2993 RMK AO2 SLP136 T01610094 10206 20150 56011
S03 
40nm NE 
SuperAWOS
252355Z AUTO 25009KT 10SM 29/04 A3005
KSIY 
41nm E 
252353Z AUTO 36004KT 10SM CLR 29/M07 A3007 RMK AO2 SLP175 T02891072 10289 20178 56018
KMFR 
42nm NE 
252353Z 31005KT 10SM CLR 32/M06 A2998 RMK AO2 SLP145 T03221061 10322 20167 56020
K3S8 
43nm N 
252355Z AUTO 35007KT 300V020 10SM CLR 32/M02 A3000 RMK AO2
3S8 
43nm N 
SuperAWOS
252255Z AUTO 27005KT 10SM 31/05 A3003
KBOK 
44nm NW 
252356Z AUTO 15006KT 10SM CLR 26/01 A2993 RMK AO2 SLP140 T02610011 10306 20244 58011
TAF
KCEC 
37nm W 
251736Z 2518/2618 32006KT 6SM FU HZ SCT025 BKN035 TEMPO 2518/2520 5SM FU FM252200 28005KT 6SM FU SCT025 BKN035 FM260400 16004KT 6SM FU SCT035 FM260900 VRB05KT 2SM FU SCT006
KMFR 
42nm NE 
251720Z 2518/2618 VRB03KT P6SM SKC FM260000 09007KT P6SM SKC
NOTAMs
Click for the latest NOTAMs
NOTAMs are issued by the DoD/FAA and will open in a separate window not controlled by AirNav.

 

 
 

Would you like to see your business listed on this page?

 If your business provides an interesting product or service to pilots, flight crews, aircraft, or users of the Happy Camp Airport, you should consider listing it here.  To start the listing process, click on the button below
 
Add a business
 

Other Pages about Happy Camp Airport

Update a link
 
Copyright © AirNav, LLC. All rights reserved. Privacy Policy  Contact